This is the latest recevied weather packets stored in our database for station/object AJ7DN. If no packets are shown the sender has not sent any weather packets the latest 10 day(s).
| Time | Temp. | Humidity | Pressure | Rain* | Wind** | Luminosity | Snow |
|---|---|---|---|---|---|---|---|
| 1777626444 | 12.22° C | 82% | 1019.8 hPa | 0 mm | - | 0 W/m² | - |
| 1777626143 | 12.78° C | 81% | 1019.5 hPa | 0 mm | - | 0 W/m² | - |
| 1777625843 | 12.78° C | 81% | 1019.8 hPa | 0 mm | - | 0 W/m² | - |
| 1777625539 | 12.78° C | 80% | 1020 hPa | 0 mm | - | 0 W/m² | - |
| 1777625234 | 13.33° C | 79% | 1019.9 hPa | 0 mm | - | 0 W/m² | - |
| 1777624931 | 13.33° C | 77% | 1019.7 hPa | 0 mm | - | 0 W/m² | - |
| 1777624627 | 13.33° C | 76% | 1019.7 hPa | 0 mm | - | 0 W/m² | - |
| 1777624322 | 13.33° C | 76% | 1019.7 hPa | 0 mm | - | 0 W/m² | - |
| 1777624020 | 13.33° C | 75% | 1019.9 hPa | 0 mm | - | 0 W/m² | - |
| 1777623717 | 13.89° C | 73% | 1019.7 hPa | 0 mm | - | 0 W/m² | - |
| 1777623414 | 13.89° C | 72% | 1019.7 hPa | 0 mm | - | 0 W/m² | - |
| 1777623110 | 14.44° C | 71% | 1019.8 hPa | 0 mm | - | 0 W/m² | - |
| 1777622808 | 15° C | 69% | 1019.6 hPa | 0 mm | - | 0 W/m² | - |
| 1777622505 | 15° C | 68% | 1019.8 hPa | 0 mm | - | 0 W/m² | - |
| 1777622201 | 15.56° C | 67% | 1019.8 hPa | 0 mm | - | 0 W/m² | - |
| 1777621897 | 15.56° C | 65% | 1019.6 hPa | 0 mm | - | 0 W/m² | - |
| 1777621593 | 15.56° C | 63% | 1019.5 hPa | 0 mm | - | 0 W/m² | - |
| 1777621290 | 16.11° C | 63% | 1019.4 hPa | 0 mm | - | 0 W/m² | - |
| 1777620986 | 16.11° C | 61% | 1019.5 hPa | 0 mm | - | 0 W/m² | - |
| 1777620681 | 16.67° C | 60% | 1019.5 hPa | 0 mm | - | 0 W/m² | - |
| 1777620378 | 16.67° C | 59% | 1019.4 hPa | 0 mm | - | 0 W/m² | - |
| 1777620076 | 16.67° C | 59% | 1019.4 hPa | 0 mm | - | 0 W/m² | - |
| 1777619772 | 17.22° C | 58% | 1019.3 hPa | 0 mm | - | 0 W/m² | - |
| 1777619466 | 17.22° C | 57% | 1019.3 hPa | 0 mm | - | 0 W/m² | - |
| 1777619162 | 17.22° C | 56% | 1019.5 hPa | 0 mm | - | 0 W/m² | - |
* Rain latest hour (hover to see other rain measurements)
** Current wind speed in m/s (hover to see current wind gust speed)